[[{"header":{"parameterUnit":"m.s-1","parameterCategory":1,"la1":30.2991,"la2":30.254,"lo1":-89.0895,"lo2":-89.0444,"dy":0.0017,"dx":0.0017,"nx":28,"ny":28,"refTime":"2025-02-13T03:00:00:Z","depth":0,"parameterNumber":2,"parameterNumberName":"U-component_of_WINDS"},"data":[0,0,0,0,0,0,0,0,0,0,0,0,0,0,0,0,0,0,0,0,0,0,0,0,0,0,0,0,0,0,0,0,0,0,0,0,0,0,0,0,0,0,0,0,0,0,0,0,0,0,0,0,0,0,0,0,0,0,-6.2326,-6.2327,0,-6.2405,-6.2406,-6.2407,-6.2283,-6.2279,-6.2275,-6.2271,-6.2356,-6.2362,-6.2368,0,0,0,0,0,0,0,0,0,0,0,0,0,-6.2073,-6.2079,-6.2326,-6.2327,-6.2328,-6.2405,-6.2406,-6.2407,-6.2284,-6.2279,-6.2273,-6.2269,-6.2354,-6.2361,-6.2369,0,0,0,0,0,0,0,0,0,0,0,0,0,-6.2171,-6.208,-6.2326,-6.2275,-6.2272,-6.2405,-6.2406,-6.2407,-6.2285,-6.2279,-6.2272,-6.2266,-6.2351,-6.2361,-6.237,-6.2557,0,0,-6.2399,-6.2403,0,0,0,0,0,0,0,0,-6.2166,-6.218,-6.2282,-6.2279,-6.2275,-6.2327,-6.2348,-6.2458,-6.2287,-6.228,-6.227,-6.2263,-6.2352,-6.2361,-6.239,-6.2561,-6.2564,-6.2399,-6.2405,-6.2409,-6.2412,0,0,0,0,0,0,0,-6.2159,-6.2176,-6.2357,-6.2284,-6.228,-6.2251,-6.2258,-6.2368,-6.2351,-6.228,-6.2271,-6.2282,-6.2349,-6.2381,-6.2391,-6.2566,-6.2399,-6.2408,-6.2413,-6.2417,-6.2896,-6.2903,0,0,0,0,0,0,-6.2158,-6.2171,-6.2355,-6.2359,-6.2203,-6.2261,-6.2268,-6.2317,-6.235,-6.2348,-6.2288,-6.2276,-6.2368,-6.238,-6.2394,-6.2616,-6.2409,-6.2418,-6.2423,-6.2889,-6.2898,-6.2905,0,0,0,0,0,0,-6.2153,-6.2175,-6.2351,-6.2263,-6.2283,-6.2272,-6.2328,-6.2322,-6.2354,-6.2355,-6.2352,-6.2323,-6.2364,-6.238,-6.2517,-6.2617,-6.2422,-6.2431,-6.2881,-6.2892,-6.2902,-6.3061,0,0,0,0,0,0,-6.2146,-6.2174,-6.2243,-6.2266,-6.2289,-6.2473,-6.2334,-6.2328,-6.237,-6.2356,-6.2388,-6.2387,-6.236,-6.2504,-6.2527,-6.2627,-6.2438,-6.2872,-6.2886,-6.2898,-6.3047,-6.3076,-6.3101,0,0,0,0,0,-6.2137,-6.2286,-6.2248,-6.227,-6.2375,-6.2478,-6.2492,-6.2456,-6.2379,-6.245,-6.2451,-6.2386,-6.2603,-6.2519,-6.2544,-6.2648,-6.2865,-6.2882,-6.2897,-6.3035,-6.307,-6.31,0,0,0,0,0,0,-6.2276,-6.2288,-6.2245,-6.2405,-6.2442,-6.2457,-6.2545,-6.2494,-6.2555,-6.2539,-6.2494,-6.2502,-6.2649,-6.2662,-6.2569,-6.2832,-6.2721,-6.2743,-6.2818,-6.2851,-6.2878,-6.2872,-6.2446,0,0,0,0,0,-6.2326,-6.2407,-6.2413,-6.2554,-6.2574,-6.2557,-6.2601,-6.257,-6.2607,-6.2622,-6.2633,-6.2673,-6.2749,-6.2801,-6.2872,-6.3049,-6.3055,-6.3133,-6.316,-6.3182,-6.3201,-6.3298,-6.3333,-6.2958,-6.2958,-6.2957,0,0,-6.2428,-6.2444,-6.2499,-6.2582,-6.2607,-6.2694,-6.2571,-6.2668,-6.2733,-6.2637,-6.2767,-6.2777,-6.2818,-6.2977,-6.3047,-6.2992,-6.3306,-6.3202,-6.322,-6.3227,-6.3318,-6.3353,-6.3385,-6.2969,-6.2967,-6.2965,0,0,-6.266,-6.268,-6.2799,-6.2827,-6.2866,-6.2854,-6.2883,-6.2907,-6.291,-6.3039,-6.297,-6.3048,-6.318,-6.3213,-6.3247,-6.3495,-6.3438,-6.3519,-6.366,-6.3755,-6.3784,-6.381,-6.39,-6.3933,-6.3538,-6.3539,-6.3539,0,-6.2783,-6.291,-6.2868,-6.2971,-6.301,-6.2927,-6.3049,-6.3079,-6.314,-6.317,-6.3107,-6.3274,-6.3295,-6.3461,-6.3522,-6.3552,-6.3585,-6.3515,-6.3783,-6.3809,-6.3832,-6.3918,-6.3951,-6.3548,-6.3547,-6.3546,-6.3545,0,-6.306,-6.315,-6.3242,-6.3302,-6.3352,-6.3465,-6.3442,-6.3498,-6.3464,-6.346,-6.3594,-6.3618,-6.3693,-6.373,-6.3698,-6.3892,-6.3857,-6.379,-6.3678,-6.3879,-6.3958,-6.399,-6.3562,-6.3559,-6.3556,-6.3553,0,0,-6.338,-6.3417,-6.3451,-6.3479,-6.3517,-6.3586,-6.3696,-6.3768,-6.3818,-6.3864,-6.3956,-6.4072,-6.401,-6.4049,-6.402,-6.4104,-6.43,-6.4026,-6.4026,-6.4077,-6.4519,-6.457,-6.4608,-6.4263,-6.4269,-6.4274,-6.4516,0,-6.3612,-6.3799,-6.3766,-6.3949,-6.4033,-6.3956,-6.4052,-6.4087,-6.4087,-6.4159,-6.4159,-6.4242,-6.4154,-6.4177,-6.4256,-6.426,-6.4389,-6.4242,-6.4351,-6.4355,-6.4343,-6.4649,-6.4703,-6.493,-6.4546,-6.4551,-6.4555,0,-6.3906,-6.3962,-6.4154,-6.4181,-6.4214,-6.4301,-6.4366,-6.4435,-6.4475,-6.4469,-6.4514,-6.447,-6.4582,-6.4469,-6.4624,-6.4525,-6.4568,-6.4577,-6.4585,-6.4594,-6.4468,-6.4668,-6.5001,-6.5035,-6.4603,-6.46,-6.4596,0,-6.4122,-6.4246,-6.4377,-6.4402,-6.4436,-6.4499,-6.4517,-6.4549,-6.4596,-6.4654,-6.4684,-6.4754,-6.4793,-6.485,-6.4828,-6.4747,-6.4988,-6.4872,-6.4988,-6.4989,-6.5042,-6.5039,-6.5388,-6.5069,-6.5068,-6.5068,-6.5067,0,-6.4384,-6.4505,-6.4474,-6.4555,-6.4689,-6.4651,-6.4785,-6.4793,-6.4824,-6.4906,-6.4845,-6.4924,-6.489,-6.4968,-6.4951,-6.5083,-6.5101,-6.5101,-6.5095,-6.5107,-6.5107,-6.5135,-6.5119,-6.5077,-6.5075,-6.5073,-6.5071,0,-6.4648,-6.4632,-6.477,-6.4791,-6.48,-6.4898,-6.4917,-6.4994,-6.4989,-6.5095,-6.5117,-6.5111,-6.52,-6.5183,-6.5281,-6.527,-6.5436,-6.541,-6.5422,-6.5417,-6.5534,-6.5523,-6.5913,-6.5963,-6.5611,-6.5614,-6.5617,0,-6.4817,-6.4908,-6.4939,-6.4989,-6.5012,-6.5094,-6.5141,-6.5108,-6.516,-6.5213,-6.5284,-6.5367,-6.5432,-6.5578,-6.5583,-6.5658,-6.5635,-6.5766,-6.5646,-6.5655,-6.5638,-6.5634,-6.5643,-6.579,-6.5794,-6.5797,-6.58,0,-6.5118,-6.5106,-6.5175,-6.5244,-6.5302,-6.5354,-6.54,-6.5446,-6.5417,-6.5479,-6.5569,-6.5619,-6.5719,-6.5804,-6.5874,-6.5894,-6.5844,-6.5838,-6.5869,-6.5882,-6.5886,-6.5887,-6.5488,-6.5829,-6.5826,-6.5824,-6.5823,-6.5821,-6.534,-6.5418,-6.5453,-6.5533,-6.5565,-6.561,-6.5684,-6.5689,-6.5762,-6.584,-6.5817,-6.592,-6.5959,-6.6049,-6.6077,-6.6159,-6.611,-6.6154,-6.6166,-6.6178,-6.6192,-6.5873,-6.6171,-6.617,-6.617,-6.6169,-6.6168,0,-6.5639,-6.5658,-6.5732,-6.5799,-6.5864,-6.5809,-6.5859,-6.5917,-6.6007,-6.6047,-6.6113,-6.6217,-6.6299,-6.6311,-6.639,-6.6453,-6.6432,-6.6474,-6.647,-6.6476,-6.6231,-6.6196,-6.649,-6.649,-6.649,-6.649,-6.649,-6.649,-6.5802,-6.5932,-6.5925,-6.6071,-6.6089,-6.6188,-6.6222,-6.6264,-6.6296,-6.6415,-6.6483,-6.649,-6.652,-6.6601,-6.6674,-6.6676,-6.6708,-6.6761,-6.6754,-6.6525,-6.6493,-6.6462,-6.643,-6.6768,-6.6768,-6.6992,-6.6994,-6.6996]},{"header":{"parameterUnit":"m.s-1","parameterCategory":1,"la1":30.2991,"la2":30.254,"lo1":-89.0895,"lo2":-89.0444,"dy":0.0017,"dx":0.0017,"nx":28,"ny":28,"refTime":"2025-02-13T03:00:00:Z","depth":0,"parameterNumber":3,"parameterNumberName":"V-component_of_WINDS"},"data":[0,0,0,0,0,0,0,0,0,0,0,0,0,0,0,0,0,0,0,0,0,0,0,0,0,0,0,0,0,0,0,0,0,0,0,0,0,0,0,0,0,0,0,0,0,0,0,0,0,0,0,0,0,0,0,0,0,0,0.1711,0.1711,0,0.1715,0.1715,0.1715,0.1746,0.1747,0.1748,0.1749,0.175,0.1749,0.1748,0,0,0,0,0,0,0,0,0,0,0,0,0,0.173,0.173,0.1711,0.1711,0.1711,0.1715,0.1715,0.1715,0.1746,0.1747,0.1748,0.1749,0.175,0.1749,0.1748,0,0,0,0,0,0,0,0,0,0,0,0,0,0.1727,0.1729,0.1711,0.1727,0.1729,0.1715,0.1715,0.1715,0.1746,0.1747,0.1748,0.1749,0.175,0.1749,0.1748,0.1718,0,0,0.1745,0.1744,0,0,0,0,0,0,0,0,0.1727,0.1726,0.1725,0.1726,0.1728,0.1732,0.1722,0.1716,0.1746,0.1739,0.1749,0.175,0.1742,0.1742,0.174,0.1718,0.1718,0.1745,0.1744,0.1744,0.1743,0,0,0,0,0,0,0,0.1727,0.1726,0.1713,0.1725,0.1727,0.1734,0.1735,0.1721,0.1734,0.174,0.1742,0.1743,0.1743,0.1741,0.174,0.1718,0.1745,0.1744,0.1743,0.1743,0.1674,0.1673,0,0,0,0,0,0,0.1725,0.1726,0.1713,0.1713,0.173,0.1733,0.1734,0.1729,0.1734,0.1736,0.1741,0.1744,0.1742,0.1742,0.1741,0.1707,0.1744,0.1743,0.1742,0.1675,0.1674,0.1672,0,0,0,0,0,0,0.1725,0.1724,0.1712,0.172,0.1719,0.1731,0.1726,0.1729,0.1726,0.1736,0.1738,0.1737,0.1743,0.1742,0.1724,0.1707,0.1742,0.1741,0.1676,0.1675,0.1673,0.1638,0,0,0,0,0,0,0.1726,0.1724,0.1712,0.172,0.1719,0.1696,0.1725,0.1728,0.1725,0.1728,0.1732,0.1733,0.1744,0.1725,0.1723,0.1706,0.174,0.1678,0.1676,0.1673,0.1641,0.1635,0.163,0,0,0,0,0,0.1726,0.1701,0.1712,0.171,0.1705,0.1695,0.1694,0.1708,0.1723,0.1712,0.1718,0.1733,0.171,0.1723,0.1721,0.1703,0.1679,0.1676,0.1674,0.1643,0.1636,0.1631,0,0,0,0,0,0,0.169,0.1702,0.1714,0.169,0.1692,0.17,0.1686,0.17,0.1696,0.1699,0.1715,0.1716,0.1695,0.1698,0.1713,0.1676,0.1697,0.1694,0.1675,0.1668,0.1663,0.1662,0.174,0,0,0,0,0,0.1679,0.1671,0.1682,0.166,0.166,0.1673,0.1669,0.168,0.1681,0.1682,0.1687,0.1687,0.168,0.1674,0.1668,0.1642,0.1643,0.1629,0.1624,0.162,0.1616,0.1603,0.1597,0.1663,0.1663,0.1663,0,0,0.1657,0.1663,0.1656,0.1653,0.1655,0.1646,0.1673,0.1661,0.1655,0.168,0.1663,0.1667,0.1669,0.1647,0.1637,0.1648,0.1599,0.1616,0.1613,0.1611,0.16,0.1594,0.1588,0.1662,0.1662,0.1662,0,0,0.1611,0.1614,0.1597,0.16,0.1603,0.1613,0.1609,0.1616,0.162,0.1604,0.1623,0.1616,0.1602,0.1603,0.1602,0.156,0.1573,0.1557,0.153,0.1517,0.1512,0.1508,0.1493,0.1487,0.1554,0.1554,0.1554,0,0.1582,0.1569,0.1586,0.1574,0.1573,0.1597,0.158,0.1581,0.1582,0.158,0.1593,0.1579,0.1581,0.1561,0.1551,0.1549,0.1545,0.1556,0.1512,0.1507,0.1503,0.1489,0.1484,0.1552,0.1552,0.1552,0.1553,0,0.1533,0.1524,0.151,0.1512,0.1509,0.1495,0.151,0.1505,0.1517,0.1525,0.1509,0.1514,0.151,0.1506,0.1517,0.1487,0.1494,0.1509,0.153,0.1495,0.1482,0.1476,0.1549,0.155,0.155,0.1551,0,0,0.1461,0.1476,0.147,0.1472,0.148,0.1473,0.146,0.1458,0.1453,0.1454,0.1443,0.1434,0.1448,0.1447,0.1458,0.1447,0.1414,0.1464,0.1464,0.1454,0.1383,0.1371,0.1364,0.1425,0.1424,0.1423,0.1382,0,0.1417,0.1396,0.1413,0.1389,0.1381,0.1406,0.1395,0.1398,0.1406,0.1401,0.141,0.1402,0.1422,0.1422,0.1412,0.142,0.14,0.1424,0.1414,0.1414,0.1412,0.1357,0.1344,0.1305,0.1377,0.1377,0.1376,0,0.1362,0.1362,0.1338,0.1349,0.1346,0.1336,0.1336,0.1331,0.1336,0.1342,0.1342,0.1357,0.1346,0.1368,0.1353,0.1368,0.1366,0.137,0.1369,0.1367,0.1391,0.1353,0.1293,0.1287,0.1368,0.1369,0.1369,0,0.1311,0.1306,0.1291,0.1292,0.1304,0.1297,0.1302,0.1308,0.1306,0.1306,0.1305,0.1304,0.1303,0.1301,0.1315,0.1331,0.1298,0.1322,0.1303,0.1302,0.1293,0.1293,0.1231,0.1293,0.1293,0.1294,0.1294,0,0.1259,0.1243,0.1269,0.1259,0.1243,0.1263,0.1246,0.1253,0.1259,0.1252,0.1273,0.1266,0.1286,0.128,0.1292,0.1277,0.1277,0.1282,0.1284,0.1279,0.1278,0.1276,0.1279,0.1292,0.1292,0.1293,0.1293,0,0.1199,0.1216,0.1201,0.1216,0.1219,0.1206,0.1218,0.121,0.1221,0.1211,0.121,0.1227,0.1222,0.1237,0.1234,0.1242,0.1221,0.1228,0.1219,0.1221,0.1201,0.1203,0.1134,0.1127,0.1195,0.1194,0.1193,0,0.1164,0.1153,0.1167,0.1164,0.1169,0.1164,0.1163,0.1183,0.1181,0.1187,0.1179,0.1176,0.1175,0.1166,0.1177,0.1175,0.1183,0.1159,0.1182,0.1178,0.1182,0.1182,0.1181,0.1154,0.1153,0.1152,0.1152,0,0.1101,0.111,0.1108,0.111,0.1109,0.1111,0.1114,0.111,0.1132,0.1129,0.1125,0.1125,0.1123,0.112,0.1121,0.1126,0.1142,0.1145,0.114,0.1134,0.1129,0.1131,0.1205,0.1146,0.1146,0.1147,0.1147,0.1147,0.1052,0.1044,0.1053,0.1051,0.1056,0.1059,0.1053,0.1064,0.1062,0.1063,0.1075,0.1069,0.1076,0.108,0.1083,0.1079,0.109,0.1083,0.1081,0.1079,0.1076,0.1131,0.1079,0.1079,0.108,0.108,0.108,0,0.0989,0.0997,0.0995,0.1,0.0999,0.1017,0.1022,0.1019,0.1014,0.102,0.102,0.1016,0.1014,0.1026,0.1026,0.102,0.1028,0.1019,0.1019,0.102,0.1066,0.107,0.1013,0.1013,0.1013,0.1013,0.1013,0.1013,0.0956,0.0944,0.0955,0.0945,0.0953,0.0949,0.095,0.0954,0.0959,0.0954,0.0953,0.0962,0.0971,0.0972,0.0971,0.0975,0.0973,0.0962,0.0968,0.101,0.1017,0.1023,0.1027,0.0962,0.0962,0.0923,0.0923,0.0922]}]]